Temperature
8 8 8 8 8 8 7 7 7 7 7 7 7 7 7 7 6 6 6 6 6 5 5 5 5 5 5 4 4 4 4 3 3 3 3 3 3 3 3 3 3 3 3
8 8 8 8 7 7 7 7 7 7 7 6 6 6 6 6 6 6 6 5 5 5 5 5 5 4 4 4 4 4 3 3 3 3 3 3 3 2 2 2 2 2 2
8 7 7 7 7 7 7 6 6 6 6 6 6 6 6 6 6 5 5 5 5 5 4 4 4 4 4 4 3 3 3 3 2 2 2 2 2 2 2 2 2 1 1
7 7 7 7 7 6 6 6 6 6 6 6 6 6 5 5 5 5 5 4 4 4 4 4 4 3 3 3 3 3 2 2 2 2 2 2 1 1 1 1 1 1 1
7 7 7 7 6 6 6 6 6 5 5 5 5 5 5 5 5 4 4 4 4 4 3 3 3 3 3 3 2 2 2 2 1 1 1 1 1 1 0 0 -0 0 0
7 7 6 6 6 6 6 5 5 5 5 5 5 5 4 4 4 4 4 4 3 3 3 3 3 3 2 2 2 2 1 1 1 1 1 0 0 0 -0 -1 -1 -1 -1
6 6 6 6 5 5 5 5 5 5 4 4 4 4 4 4 4 4 3 3 3 3 3 2 2 2 2 2 2 1 1 1 1 0 0 0 -0 -0 -1 -1 -1 -1 -1
6 6 5 5 5 5 5 4 4 4 4 4 4 4 4 3 3 3 3 3 2 2 2 2 2 2 1 1 1 1 1 1 0 -0 -0 -0 -1 -1 -2 -2 -2 -2 -2
6 5 5 5 4 4 4 4 4 4 4 3 3 3 3 3 3 3 2 2 2 2 2 2 1 1 1 1 0 0 0 0 -0 -1 -1 -1 -1 -2 -2 -2 -3 -3 -3
5 5 5 4 4 4 4 4 3 3 3 3 3 3 3 3 2 2 2 2 1 1 1 1 1 0 0 -0 -1 -1 -1 -0 -1 -1 -1 -2 -2 -2 -3 -3 -3 -4 -4
5 4 4 4 4 3 3 3 3 3 3 3 3 2 2 2 2 1 1 1 1 1 1 1 0 -0 -0 -1 -1 -1 -1 -2 -2 -2 -2 -2 -2 -3 -3 -3 -4 -4 -4
4 4 4 3 3 3 3 3 3 2 2 2 2 2 2 1 1 1 1 1 0 0 0 0 -0 -1 -1 -1 -2 -2 -2 -2 -3 -3 -3 -3 -3 -3 -3 -4 -4 -4 -4
4 4 3 3 3 3 3 2 2 2 2 2 1 1 1 1 1 0 0 0 -0 -0 -0 -1 -1 -1 -1 -2 -2 -2 -3 -3 -3 -3 -4 -4 -4 -4 -4 -5 -5 -5 -5
3 3 3 3 3 2 2 2 2 1 1 1 1 1 0 0 0 0 -0 -0 -1 -1 -1 -1 -1 -2 -2 -2 -2 -3 -3 -3 -4 -4 -4 -4 -5 -5 -5 -5 -5 -5 -5
3 3 2 2 2 2 2 2 1 1 1 0 0 -0 -0 -0 -0 -1 -1 -1 -1 -1 -2 -2 -2 -2 -2 -3 -3 -3 -4 -4 -4 -4 -5 -5 -5 -5 -5 -5 -6 -6 -6
2 2 2 2 2 2 1 1 1 1 0 0 -0 -1 -1 -1 -1 -1 -1 -2 -2 -2 -2 -2 -3 -3 -3 -3 -4 -4 -4 -5 -5 -5 -5 -5 -5 -6 -6 -6 -6 -6 -6
2 2 2 2 1 1 1 1 0 0 0 -0 -1 -1 -1 -1 -2 -2 -2 -2 -2 -3 -3 -3 -3 -3 -4 -4 -4 -5 -5 -5 -5 -5 -5 -6 -6 -6 -6 -6 -6 -7 -7
2 1 1 1 1 1 0 -0 -0 -0 -0 -0 -1 -1 -2 -2 -2 -2 -3 -3 -3 -3 -3 -3 -4 -4 -4 -5 -5 -5 -5 -5 -6 -6 -6 -6 -6 -6 -6 -7 -7 -7 -7
1 1 1 1 0 -0 -0 -1 -1 -1 -1 -1 -1 -2 -2 -2 -2 -3 -3 -3 -3 -3 -4 -4 -4 -5 -5 -5 -5 -6 -6 -6 -6 -6 -6 -6 -7 -7 -7 -7 -7 -7 -7
1 0 0 -0 -0 -1 -1 -1 -1 -1 -2 -2 -2 -2 -3 -3 -3 -3 -3 -4 -4 -4 -4 -5 -5 -5 -5 -6 -6 -6 -6 -6 -6 -6 -7 -7 -7 -7 -7 -7 -7 -7 -7
0 -0 -0 -1 -1 -1 -1 -2 -2 -2 -2 -2 -3 -3 -3 -4 -4 -4 -4 -4 -5 -5 -5 -5 -5 -6 -6 -6 -6 -6 -7 -7 -7 -7 -7 -7 -7 -7 -7 -8 -8 -8 -8
-0 -1 -1 -1 -1 -2 -2 -2 -2 -3 -3 -3 -3 -4 -4 -4 -4 -4 -5 -5 -5 -5 -6 -6 -6 -6 -6 -6 -7 -7 -7 -7 -7 -7 -7 -8 -8 -8 -8 -8 -8 -8 -8
-1 -1 -1 -2 -2 -2 -3 -3 -3 -3 -3 -4 -4 -4 -4 -4 -5 -5 -5 -5 -5 -6 -6 -6 -6 -6 -6 -7 -7 -7 -7 -7 -7 -8 -8 -8 -8 -8 -8 -8 -8 -8 -8
-2 -2 -2 -2 -2 -3 -3 -3 -3 -4 -4 -4 -4 -4 -5 -5 -5 -5 -5 -6 -6 -6 -6 -6 -6 -6 -7 -7 -7 -7 -7 -7 -8 -8 -8 -8 -8 -8 -8 -8 -9 -9 -9
-2 -2 -3 -3 -3 -3 -3 -4 -4 -4 -4 -5 -5 -5 -5 -5 -5 -6 -6 -6 -6 -6 -6 -6 -6 -6 -7 -7 -7 -7 -7 -8 -8 -8 -8 -8 -9 -9 -9 -9 -9 -9 -9
-3 -3 -3 -3 -3 -4 -4 -4 -4 -4 -5 -5 -5 -5 -6 -6 -6 -6 -6 -6 -6 -6 -6 -6 -7 -7 -7 -7 -8 -8 -8 -8 -8 -8 -8 -9 -9 -9 -9 -9 -9 -9 -9
Wind_Speed
4 4 4 4 4 3 3 3 3 3 3 3 3 4 4 4 4 4 5 4 4 4 4 4 5 4 4 3 3 3 3 3 5 4 3 2 2 2 4 6 7 8 8
3 3 3 4 3 3 3 3 3 2 2 3 3 3 4 4 3 4 4 4 4 5 5 4 5 4 5 4 4 4 4 4 5 6 4 3 4 4 3 3 6 7 7
3 3 2 3 3 3 3 2 2 2 2 2 2 3 3 3 3 3 3 4 4 5 5 5 5 4 5 4 4 5 4 5 4 5 5 3 3 3 3 4 4 4 7
3 3 3 3 3 2 2 2 2 2 2 2 2 3 3 3 3 3 3 3 4 4 4 5 5 5 6 5 5 5 4 4 4 4 5 4 4 4 2 3 4 3 4
3 3 3 2 2 2 1 2 2 2 2 2 2 3 3 3 3 3 3 4 4 4 4 4 5 6 7 6 5 5 5 4 4 4 5 4 4 3 3 3 4 4 4
4 3 2 2 2 2 2 2 2 2 2 2 3 3 3 3 4 5 4 4 4 4 5 5 5 6 8 10 10 9 7 6 6 5 5 6 6 5 4 3 3 3 4
4 3 3 3 2 2 2 2 3 3 3 3 3 3 4 4 5 6 6 4 4 5 5 5 5 5 7 5 7 9 9 11 11 7 7 8 7 5 4 4 4 4 6
4 3 3 3 2 2 2 3 3 2 2 3 3 4 4 5 6 6 7 5 5 6 6 6 6 6 6 6 5 5 6 8 9 8 8 8 7 5 5 5 5 5 5
4 3 3 3 3 3 3 3 3 2 3 3 3 4 4 5 6 7 6 3 4 6 6 6 6 6 9 9 6 6 7 7 9 12 13 12 13 12 8 3 3 4 6
4 4 3 3 3 4 4 3 2 2 3 3 4 4 5 6 7 7 6 3 4 5 5 5 8 8 10 10 6 6 8 7 6 6 7 10 9 10 11 6 5 5 5
3 3 3 3 3 3 3 3 3 3 3 4 5 5 5 6 7 7 7 4 4 4 4 4 4 8 10 10 9 7 10 9 6 5 5 5 5 5 5 5 5 5 6
3 3 3 3 3 3 3 3 3 3 4 4 4 5 4 4 5 6 8 8 7 5 5 4 5 8 9 10 9 10 12 10 5 5 5 5 5 5 5 5 6 7 7
3 3 3 3 3 3 3 3 3 3 3 4 3 4 4 3 4 7 8 8 8 5 5 7 9 10 10 8 10 11 10 6 5 6 6 6 5 5 4 4 4 5 6
4 4 3 3 3 3 3 3 3 3 4 4 4 5 5 4 4 3 3 4 5 5 5 7 10 11 8 8 8 7 5 5 5 6 5 5 3 4 4 4 5 4 5
4 4 3 4 3 3 3 4 4 5 5 5 5 4 5 6 6 7 5 4 4 5 5 4 4 4 4 4 4 4 4 4 5 5 5 5 4 5 5 4 4 5 6
4 4 3 3 3 3 3 4 6 7 8 9 9 8 7 9 11 11 11 11 11 10 7 5 5 5 5 5 5 5 4 4 5 5 5 5 6 6 5 4 5 6 7
5 5 3 3 3 3 3 4 5 6 8 9 10 11 11 11 11 11 12 11 11 10 6 5 6 6 6 5 5 5 5 5 5 5 5 6 6 6 5 5 5 6 6
5 5 4 4 4 4 4 4 4 5 6 5 7 10 11 11 11 11 11 9 6 6 5 6 6 6 5 5 5 5 5 5 5 5 6 6 6 6 6 6 6 6 6
4 4 4 4 3 4 4 4 4 5 5 6 5 5 8 9 10 10 9 5 5 6 6 6 6 6 6 5 5 5 5 5 6 5 6 6 6 6 6 6 6 8 7
4 6 5 3 3 4 4 4 4 5 5 6 6 5 4 4 4 5 4 5 5 6 6 6 6 6 6 5 5 5 6 6 6 6 6 6 6 6 7 7 6 6 6
3 4 5 4 4 4 4 5 5 5 6 6 6 6 8 5 6 6 6 6 6 6 6 6 6 6 6 5 5 6 7 6 6 6 6 5 5 6 6 6 6 6 5
3 3 4 4 4 4 5 5 5 5 6 7 6 7 11 6 5 6 6 6 6 6 6 6 6 6 5 6 6 6 7 7 6 6 6 5 5 6 5 5 5 5 5
3 4 4 4 4 6 6 5 5 6 6 6 6 6 6 6 6 7 7 7 6 6 5 5 6 6 6 6 6 6 7 7 6 6 6 6 5 5 5 5 6 5 5
3 4 4 4 4 5 5 6 6 6 6 6 6 6 6 6 7 7 7 6 6 6 5 6 6 8 8 7 6 7 8 8 8 7 7 7 6 5 5 5 5 6 5
3 4 5 5 5 5 5 6 6 6 6 7 7 7 7 7 7 7 6 6 7 6 7 6 6 7 8 9 8 8 11 12 12 9 7 6 7 6 6 5 5 5 5
4 5 5 5 5 5 5 6 6 7 7 7 7 7 7 7 7 7 6 6 6 6 6 6 6 7 8 8 9 11 12 13 12 12 7 5 6 6 6 5 6 5 5
Wind_Direction
174 175 181 190 188 187 195 210 213 216 213 216 221 224 228 228 223 223 231 232 235 244 239 231 242 243 238 230 225 227 231 222 249 274 278 281 269 269 283 278 280 277 278
166 168 179 175 177 188 203 209 203 214 219 219 223 227 233 231 228 227 238 233 227 234 238 236 240 240 238 232 227 228 231 229 235 261 275 272 267 262 259 269 277 276 274
148 157 170 174 179 194 206 205 197 205 216 220 220 230 237 236 233 233 235 241 238 236 234 234 240 234 241 237 233 233 236 243 234 245 265 266 268 269 271 278 276 276 280
154 163 179 184 182 192 201 199 201 202 208 219 228 232 234 238 234 236 238 247 250 248 243 237 238 233 236 233 236 234 233 241 244 245 257 265 265 267 254 266 283 274 278
161 172 184 174 168 175 190 204 204 206 217 219 227 238 237 233 230 228 238 248 253 258 257 247 241 235 235 237 240 231 222 229 238 245 255 263 262 259 252 250 264 283 284
167 177 172 171 176 181 197 208 216 225 227 225 229 234 238 236 235 241 241 248 254 255 259 258 253 247 244 249 253 251 235 229 231 238 251 253 258 251 249 251 256 282 286
172 170 169 179 188 197 202 215 227 230 230 234 235 235 241 240 240 248 250 248 252 254 254 255 258 250 251 241 252 259 258 255 248 240 242 247 253 249 246 254 248 253 261
172 175 177 181 194 204 211 229 236 235 236 240 243 244 250 252 245 248 254 246 249 253 249 245 246 249 242 233 234 247 249 252 251 248 246 252 251 247 235 239 244 259 269
183 186 185 184 199 210 223 237 240 242 253 252 252 254 259 266 257 252 252 241 251 260 258 252 246 245 251 248 240 247 258 259 257 250 249 251 256 262 258 251 251 266 278
192 187 183 189 204 217 224 234 239 239 251 262 266 260 257 263 265 257 251 235 253 265 267 261 254 252 255 254 243 240 257 263 262 264 255 257 257 258 258 240 225 244 265
174 173 185 199 210 220 226 230 234 240 254 263 267 268 262 258 266 260 253 238 243 262 270 270 265 268 266 262 257 246 257 266 260 255 255 253 250 245 244 236 226 230 243
161 181 203 213 216 216 226 237 237 237 251 265 272 279 273 266 260 261 259 253 255 254 263 266 266 276 275 272 269 262 267 271 263 257 257 253 249 247 243 240 238 239 240
175 202 217 219 222 223 230 240 247 245 248 260 266 274 280 276 272 270 268 266 265 261 259 268 275 281 283 276 269 271 272 263 254 255 255 254 246 244 242 243 242 244 249
195 213 216 220 231 232 234 235 239 245 251 257 263 270 277 280 276 275 272 275 274 275 274 277 282 280 276 269 271 270 257 248 250 255 259 256 250 245 245 239 245 247 255
206 214 218 222 229 236 237 235 242 241 238 248 252 255 268 278 275 278 283 278 269 264 282 279 272 267 261 259 257 258 252 252 257 253 255 259 256 254 252 241 240 244 249
209 217 217 220 228 236 252 273 260 255 263 263 262 263 267 270 284 287 287 287 286 283 282 271 270 264 261 258 259 259 253 252 254 251 251 252 254 255 258 250 244 244 250
210 215 215 218 225 236 245 257 281 287 274 270 271 273 271 277 283 287 288 289 285 283 272 264 265 263 262 259 256 254 257 253 252 250 250 252 252 252 255 255 251 249 251
210 214 215 219 224 232 240 247 255 272 288 287 277 276 279 281 283 284 286 291 282 273 258 260 262 263 263 260 260 262 262 259 255 254 253 252 250 251 253 252 248 248 251
210 216 219 221 223 232 240 248 255 262 269 278 284 285 281 284 285 283 282 267 265 269 264 262 262 264 264 261 260 260 260 262 262 258 254 253 251 249 251 249 247 250 249
215 223 224 222 228 236 241 247 255 260 266 270 273 275 280 282 279 279 267 257 259 265 266 267 266 264 264 262 262 262 263 263 262 259 254 253 251 248 250 247 245 246 243
213 221 224 227 231 237 243 248 254 259 263 267 268 270 277 273 268 269 269 263 261 264 266 267 266 262 259 261 261 260 261 264 262 260 257 254 251 252 250 248 246 243 243
209 215 219 226 237 242 249 248 252 258 262 268 274 278 280 273 265 267 268 267 261 256 254 259 266 262 256 256 259 262 264 264 261 258 258 255 254 252 248 244 242 240 238
210 221 234 240 242 253 258 251 253 258 262 265 270 273 272 266 266 268 269 268 264 262 256 255 263 265 256 249 247 252 260 262 258 256 255 253 250 245 240 239 237 239 240
215 227 240 246 245 244 249 254 256 260 263 266 268 269 268 267 269 271 271 271 269 266 261 258 258 261 262 260 258 256 257 260 256 251 245 247 244 238 233 233 235 236 240
227 235 243 246 248 250 253 257 259 261 265 269 271 272 272 271 272 273 272 272 272 271 269 265 262 261 261 260 261 261 262 264 262 255 241 238 235 228 227 231 233 236 239
236 241 246 248 249 251 255 261 264 265 266 269 269 268 270 271 273 274 275 275 276 276 274 271 265 265 267 267 265 265 268 269 267 262 249 231 225 225 222 227 228 231 234
Height
1493 1494 1495 1495 1496 1497 1497 1498 1498 1498 1498 1498 1498 1498 1498 1498 1498 1498 1497 1497 1497 1496 1496 1496 1495 1495 1495 1494 1494 1493 1493 1492 1490 1488 1488 1488 1486 1485 1483 1483 1481 1480 1478
1490 1491 1492 1492 1493 1493 1494 1494 1495 1495 1495 1494 1494 1494 1494 1494 1494 1493 1493 1492 1492 1492 1492 1491 1491 1491 1490 1489 1489 1488 1488 1487 1486 1483 1483 1483 1482 1480 1479 1478 1476 1475 1474
1488 1489 1489 1490 1490 1490 1491 1491 1491 1491 1491 1491 1491 1490 1490 1490 1490 1489 1489 1488 1488 1487 1487 1486 1486 1486 1485 1485 1484 1483 1483 1482 1481 1479 1477 1477 1476 1476 1474 1472 1472 1470 1469
1486 1486 1487 1487 1487 1487 1487 1487 1487 1487 1487 1487 1487 1487 1486 1486 1486 1485 1484 1484 1483 1483 1482 1482 1481 1481 1481 1480 1479 1478 1478 1477 1476 1474 1473 1472 1471 1470 1469 1467 1466 1465 1464
1483 1484 1484 1484 1484 1484 1484 1484 1484 1484 1483 1483 1483 1483 1482 1482 1482 1481 1480 1480 1479 1478 1478 1477 1477 1476 1476 1475 1474 1473 1472 1471 1470 1469 1467 1467 1466 1465 1464 1462 1461 1459 1458
1480 1481 1481 1481 1481 1481 1481 1481 1480 1480 1480 1480 1479 1479 1479 1478 1478 1477 1477 1475 1474 1473 1473 1472 1471 1471 1471 1470 1469 1468 1467 1466 1465 1464 1462 1461 1460 1460 1459 1458 1456 1454 1452
1477 1477 1478 1478 1478 1478 1478 1477 1477 1477 1476 1476 1476 1475 1475 1474 1474 1473 1472 1471 1470 1469 1468 1467 1466 1466 1465 1464 1464 1463 1462 1461 1460 1459 1457 1455 1455 1454 1454 1452 1451 1450 1448
1474 1474 1474 1475 1475 1475 1475 1474 1474 1473 1473 1473 1472 1472 1471 1470 1470 1469 1468 1466 1465 1464 1463 1462 1461 1460 1460 1459 1458 1456 1455 1455 1454 1453 1451 1450 1450 1449 1448 1447 1446 1444 1443
1471 1471 1471 1471 1472 1472 1471 1471 1471 1470 1469 1469 1468 1468 1467 1466 1465 1464 1463 1461 1460 1459 1458 1457 1456 1455 1455 1454 1452 1451 1449 1448 1448 1447 1446 1445 1444 1444 1443 1442 1440 1439 1436
1468 1468 1468 1468 1468 1468 1468 1468 1467 1466 1466 1465 1464 1463 1462 1462 1461 1460 1459 1457 1455 1454 1453 1452 1451 1450 1449 1448 1447 1445 1443 1442 1442 1440 1440 1439 1438 1437 1437 1436 1435 1434 1432
1465 1465 1465 1465 1465 1465 1464 1464 1463 1462 1461 1461 1460 1459 1458 1457 1456 1455 1454 1452 1450 1449 1448 1447 1446 1445 1444 1443 1441 1440 1438 1437 1436 1434 1433 1432 1432 1431 1430 1430 1429 1429 1427
1461 1461 1461 1461 1461 1461 1461 1460 1459 1458 1457 1456 1455 1454 1453 1453 1452 1450 1449 1447 1446 1444 1442 1441 1440 1440 1438 1437 1436 1435 1434 1432 1430 1429 1427 1426 1425 1425 1424 1424 1423 1423 1421
1457 1457 1458 1458 1458 1457 1457 1456 1455 1454 1453 1452 1451 1450 1449 1448 1447 1446 1444 1442 1441 1439 1437 1436 1435 1434 1432 1431 1430 1429 1428 1427 1425 1423 1422 1420 1420 1419 1418 1417 1417 1416 1415
1453 1454 1454 1454 1453 1453 1452 1452 1451 1450 1449 1448 1447 1445 1444 1443 1442 1440 1439 1437 1436 1434 1432 1431 1429 1428 1427 1426 1424 1423 1422 1421 1419 1418 1416 1415 1414 1413 1412 1411 1410 1409 1408
1450 1450 1450 1450 1449 1449 1448 1448 1446 1446 1445 1444 1442 1441 1439 1437 1437 1436 1434 1432 1430 1429 1427 1425 1423 1422 1421 1420 1419 1418 1416 1415 1414 1413 1411 1409 1408 1408 1407 1406 1405 1404 1402
1445 1445 1445 1445 1445 1444 1443 1443 1442 1441 1440 1439 1437 1436 1434 1433 1431 1430 1428 1427 1425 1423 1421 1419 1418 1416 1415 1414 1413 1412 1411 1410 1408 1407 1406 1404 1403 1402 1401 1400 1399 1398 1397
1441 1441 1441 1440 1440 1439 1439 1437 1436 1436 1435 1434 1432 1431 1429 1428 1426 1424 1422 1421 1419 1418 1416 1414 1412 1411 1410 1409 1408 1406 1405 1404 1403 1402 1400 1399 1398 1397 1396 1395 1394 1393 1392
1436 1436 1436 1435 1435 1435 1434 1433 1432 1430 1429 1427 1427 1426 1424 1422 1420 1419 1417 1415 1413 1412 1411 1409 1407 1406 1405 1403 1402 1401 1400 1398 1397 1396 1395 1394 1392 1391 1390 1389 1388 1387 1387
1431 1431 1431 1431 1430 1430 1429 1428 1427 1426 1424 1422 1421 1420 1419 1417 1415 1414 1412 1410 1408 1406 1405 1403 1402 1400 1399 1398 1396 1395 1394 1392 1391 1390 1389 1388 1387 1386 1385 1384 1383 1382 1382
1426 1426 1426 1426 1425 1425 1424 1423 1422 1421 1419 1417 1416 1414 1413 1411 1409 1408 1406 1405 1403 1401 1399 1398 1396 1395 1393 1392 1390 1389 1387 1386 1385 1384 1383 1382 1381 1380 1379 1378 1378 1377 1376
1421 1421 1421 1421 1420 1420 1419 1418 1417 1415 1414 1412 1411 1410 1408 1406 1404 1402 1401 1399 1397 1395 1393 1392 1390 1389 1387 1386 1384 1383 1381 1380 1379 1378 1377 1376 1376 1375 1374 1373 1373 1372 1372
1416 1416 1416 1415 1415 1414 1414 1413 1411 1410 1408 1407 1405 1404 1402 1401 1398 1397 1395 1393 1391 1389 1388 1386 1384 1382 1381 1380 1378 1377 1375 1374 1373 1372 1372 1371 1370 1369 1369 1368 1368 1368 1367
1411 1411 1411 1410 1410 1409 1408 1407 1406 1404 1403 1401 1400 1398 1396 1395 1393 1391 1389 1387 1385 1383 1381 1380 1377 1376 1374 1373 1372 1371 1369 1368 1367 1367 1366 1365 1365 1364 1364 1363 1363 1363 1363
1406 1406 1406 1405 1405 1404 1403 1401 1400 1399 1397 1396 1394 1392 1391 1389 1387 1385 1383 1381 1379 1377 1375 1373 1371 1369 1368 1367 1365 1364 1363 1362 1361 1361 1360 1360 1359 1359 1359 1359 1359 1358 1358
1402 1401 1401 1400 1399 1398 1397 1396 1395 1393 1392 1390 1388 1386 1385 1383 1381 1379 1377 1375 1373 1371 1369 1367 1365 1363 1362 1360 1359 1358 1357 1356 1356 1355 1355 1354 1354 1354 1354 1354 1354 1354 1354
1396 1396 1395 1394 1394 1393 1391 1390 1389 1387 1386 1384 1382 1381 1379 1377 1375 1373 1371 1369 1367 1365 1363 1361 1359 1358 1356 1354 1353 1352 1351 1350 1350 1349 1349 1349 1349 1349 1349 1349 1350 1350 1350